[[{"header":{"parameterUnit":"m.s-1","parameterCategory":1,"la1":30.2991,"la2":30.254,"lo1":-89.0895,"lo2":-89.0444,"dy":0.0017,"dx":0.0017,"nx":28,"ny":28,"refTime":"2024-04-02T03:00:00:Z","depth":0,"parameterNumber":2,"parameterNumberName":"U-component_of_WINDS"},"data":[0,0,0,0,0,0,0,0,0,0,0,0,0,0,0,0,0,0,0,0,0,0,0,0,0,0,0,0,0,0,0,0,0,0,0,0,0,0,0,0,0,0,0,0,0,0,0,0,0,0,0,0,0,0,0,0,0,0,-3.2475,-3.2475,0,-3.2537,-3.2538,-3.2539,-3.2523,-3.2522,-3.2521,-3.252,-3.2582,-3.2585,-3.2588,0,0,0,0,0,0,0,0,0,0,0,0,0,-3.2341,-3.2343,-3.2475,-3.2475,-3.2476,-3.2537,-3.2538,-3.2539,-3.2524,-3.2522,-3.2521,-3.2519,-3.2581,-3.2585,-3.2588,0,0,0,0,0,0,0,0,0,0,0,0,0,-3.2401,-3.2344,-3.2474,-3.2476,-3.2477,-3.2537,-3.2538,-3.2539,-3.2524,-3.2522,-3.252,-3.2519,-3.258,-3.2584,-3.2588,-3.2651,0,0,-3.2601,-3.2603,0,0,0,0,0,0,0,0,-3.2397,-3.2405,-3.2475,-3.2476,-3.2477,-3.2521,-3.2514,-3.2576,-3.2524,-3.2506,-3.252,-3.2518,-3.2563,-3.2569,-3.2584,-3.2654,-3.2656,-3.2602,-3.2604,-3.2606,-3.2607,0,0,0,0,0,0,0,-3.2393,-3.2403,-3.2499,-3.2476,-3.2477,-3.2473,-3.248,-3.2525,-3.2544,-3.2507,-3.2506,-3.2514,-3.2563,-3.258,-3.2586,-3.2657,-3.2602,-3.2605,-3.2608,-3.2609,-3.278,-3.2782,0,0,0,0,0,0,-3.2388,-3.2399,-3.2497,-3.2501,-3.2432,-3.2477,-3.2484,-3.2508,-3.2543,-3.2547,-3.2516,-3.2513,-3.2574,-3.2581,-3.2588,-3.2662,-3.2606,-3.261,-3.2612,-3.2778,-3.278,-3.2783,0,0,0,0,0,0,-3.2385,-3.2397,-3.2495,-3.245,-3.2462,-3.2481,-3.2508,-3.2511,-3.2528,-3.255,-3.2553,-3.253,-3.2573,-3.2582,-3.2635,-3.2664,-3.2612,-3.2616,-3.2776,-3.2779,-3.2781,-3.2811,0,0,0,0,0,0,-3.2382,-3.2396,-3.242,-3.2451,-3.2465,-3.2541,-3.251,-3.2513,-3.2535,-3.2532,-3.2564,-3.2567,-3.2572,-3.2629,-3.2639,-3.2669,-3.2619,-3.2773,-3.2777,-3.278,-3.2808,-3.2815,-3.2821,0,0,0,0,0,-3.2377,-3.2426,-3.2422,-3.2433,-3.2495,-3.2543,-3.2551,-3.2556,-3.2537,-3.2561,-3.2576,-3.2566,-3.266,-3.2635,-3.2646,-3.2677,-3.2771,-3.2776,-3.278,-3.2805,-3.2814,-3.2821,0,0,0,0,0,0,-3.2398,-3.243,-3.2425,-3.2486,-3.2512,-3.2541,-3.2571,-3.2566,-3.2597,-3.2593,-3.2599,-3.2606,-3.266,-3.2674,-3.2646,-3.2739,-3.2712,-3.272,-3.2727,-3.2736,-3.2742,-3.2737,-3.2622,0,0,0,0,0,-3.241,-3.2446,-3.2472,-3.2523,-3.2537,-3.2552,-3.2573,-3.2575,-3.2602,-3.2613,-3.2631,-3.2657,-3.2692,-3.2715,-3.2749,-3.2811,-3.2816,-3.2838,-3.2844,-3.285,-3.2855,-3.2888,-3.2898,-3.2797,-3.2797,-3.2797,0,0,-3.2434,-3.2456,-3.2479,-3.2528,-3.2548,-3.2586,-3.2561,-3.2602,-3.2629,-3.2619,-3.267,-3.2684,-3.2714,-3.2771,-3.2797,-3.2785,-3.2885,-3.2856,-3.286,-3.2862,-3.2894,-3.2903,-3.2912,-3.28,-3.28,-3.2799,0,0,-3.2497,-3.2518,-3.2563,-3.2584,-3.2615,-3.2625,-3.2636,-3.2665,-3.2675,-3.2726,-3.2719,-3.2752,-3.2813,-3.2834,-3.2852,-3.2924,-3.2916,-3.2935,-3.2969,-3.3001,-3.3009,-3.3016,-3.3041,-3.305,-3.2941,-3.2941,-3.2941,0,-3.2523,-3.258,-3.2586,-3.2627,-3.2649,-3.2642,-3.2686,-3.2706,-3.2747,-3.2762,-3.2748,-3.2824,-3.2843,-3.2905,-3.2923,-3.2938,-3.295,-3.2931,-3.3008,-3.3015,-3.3022,-3.3045,-3.3054,-3.2943,-3.2943,-3.2943,-3.2943,0,-3.261,-3.2649,-3.2681,-3.2721,-3.2746,-3.2789,-3.2801,-3.2826,-3.2826,-3.2837,-3.289,-3.2913,-3.2951,-3.2966,-3.2967,-3.3028,-3.3019,-3.3007,-3.298,-3.3033,-3.3055,-3.3064,-3.2946,-3.2945,-3.2945,-3.2944,0,0,-3.2687,-3.273,-3.2741,-3.2759,-3.2794,-3.2824,-3.2866,-3.2904,-3.2925,-3.2954,-3.2988,-3.304,-3.3029,-3.305,-3.3053,-3.3081,-3.3135,-3.3065,-3.3066,-3.3076,-3.3204,-3.3212,-3.3222,-3.3131,-3.3133,-3.3134,-3.3201,0,-3.2752,-3.2827,-3.2834,-3.2901,-3.2937,-3.2931,-3.2968,-3.2993,-3.3005,-3.3036,-3.3049,-3.3086,-3.3068,-3.3081,-3.3109,-3.3123,-3.3161,-3.3119,-3.3162,-3.3164,-3.3154,-3.3234,-3.3243,-3.3304,-3.3209,-3.3211,-3.3212,0,-3.2838,-3.2869,-3.294,-3.2969,-3.2985,-3.3018,-3.3052,-3.3083,-3.3111,-3.3118,-3.3142,-3.3141,-3.3184,-3.3157,-3.3216,-3.3187,-3.3206,-3.3216,-3.3218,-3.3221,-3.319,-3.3238,-3.3324,-3.3333,-3.3226,-3.3225,-3.3224,0,-3.2886,-3.2946,-3.2995,-3.3011,-3.3047,-3.307,-3.3086,-3.3112,-3.3134,-3.3165,-3.3179,-3.3214,-3.3233,-3.326,-3.3269,-3.3248,-3.3327,-3.3301,-3.3332,-3.3332,-3.3348,-3.3346,-3.3437,-3.3363,-3.3362,-3.3362,-3.3362,0,-3.2957,-3.3,-3.3017,-3.3048,-3.3095,-3.3103,-3.315,-3.3165,-3.3188,-3.3221,-3.3219,-3.325,-3.326,-3.3292,-3.3299,-3.3346,-3.3355,-3.3361,-3.3362,-3.336,-3.3359,-3.3371,-3.3366,-3.3365,-3.3364,-3.3364,-3.3363,0,-3.3017,-3.3031,-3.3084,-3.3114,-3.3123,-3.3156,-3.3181,-3.3211,-3.3222,-3.3264,-3.3274,-3.3292,-3.333,-3.3342,-3.3387,-3.3392,-3.3447,-3.3445,-3.3437,-3.3437,-3.3467,-3.3464,-3.3568,-3.3581,-3.3499,-3.35,-3.35,0,-3.3061,-3.3094,-3.3128,-3.315,-3.3166,-3.3202,-3.3225,-3.3234,-3.3257,-3.3292,-3.3316,-3.3354,-3.3385,-3.3445,-3.3462,-3.3497,-3.3495,-3.3529,-3.35,-3.3497,-3.3494,-3.3491,-3.3494,-3.3534,-3.3535,-3.3535,-3.3536,0,-3.3138,-3.3143,-3.3176,-3.3211,-3.3238,-3.3266,-3.3293,-3.3311,-3.3324,-3.3351,-3.339,-3.3414,-3.346,-3.3497,-3.3533,-3.3549,-3.3544,-3.3545,-3.3554,-3.3552,-3.3546,-3.3548,-3.345,-3.3542,-3.3542,-3.3541,-3.3541,-3.3541,-3.319,-3.3219,-3.3247,-3.3283,-3.3305,-3.333,-3.3359,-3.3374,-3.3407,-3.3446,-3.345,-3.3491,-3.3518,-3.3565,-3.3583,-3.3616,-3.3606,-3.3619,-3.3622,-3.3625,-3.3627,-3.3542,-3.3622,-3.3622,-3.3622,-3.3622,-3.3622,0,-3.3265,-3.3283,-3.3317,-3.3355,-3.3383,-3.3378,-3.3408,-3.3432,-3.3469,-3.3495,-3.3525,-3.3569,-3.3605,-3.3625,-3.3661,-3.3683,-3.3682,-3.3692,-3.369,-3.3693,-3.3634,-3.3622,-3.3692,-3.3692,-3.3692,-3.3692,-3.3692,-3.3692,-3.3308,-3.3356,-3.3364,-3.3422,-3.344,-3.3481,-3.3498,-3.3521,-3.3542,-3.3592,-3.3622,-3.3635,-3.3658,-3.3696,-3.3728,-3.3733,-3.3746,-3.3757,-3.376,-3.3705,-3.3697,-3.369,-3.3679,-3.376,-3.376,-3.3816,-3.3817,-3.3817]},{"header":{"parameterUnit":"m.s-1","parameterCategory":1,"la1":30.2991,"la2":30.254,"lo1":-89.0895,"lo2":-89.0444,"dy":0.0017,"dx":0.0017,"nx":28,"ny":28,"refTime":"2024-04-02T03:00:00:Z","depth":0,"parameterNumber":3,"parameterNumberName":"V-component_of_WINDS"},"data":[0,0,0,0,0,0,0,0,0,0,0,0,0,0,0,0,0,0,0,0,0,0,0,0,0,0,0,0,0,0,0,0,0,0,0,0,0,0,0,0,0,0,0,0,0,0,0,0,0,0,0,0,0,0,0,0,0,0,5.2345,5.2346,0,5.2446,5.2447,5.2448,5.2445,5.2443,5.2442,5.244,5.2541,5.2545,5.2549,0,0,0,0,0,0,0,0,0,0,0,0,0,5.2146,5.215,5.2345,5.2346,5.2347,5.2446,5.2447,5.2449,5.2445,5.2443,5.2441,5.244,5.254,5.2544,5.2549,0,0,0,0,0,0,0,0,0,0,0,0,0,5.2238,5.2151,5.2344,5.2357,5.2359,5.2446,5.2447,5.2449,5.2445,5.2443,5.2441,5.2439,5.2538,5.2544,5.255,5.2629,0,0,5.2568,5.2571,0,0,0,0,0,0,0,0,5.2233,5.2246,5.2354,5.2356,5.2359,5.2431,5.2414,5.2509,5.2446,5.2412,5.244,5.2438,5.2506,5.2514,5.2538,5.2634,5.2638,5.2569,5.2572,5.2575,5.2576,0,0,0,0,0,0,0,5.2227,5.2241,5.2385,5.2356,5.2359,5.2357,5.2368,5.2432,5.247,5.2415,5.2415,5.2427,5.2507,5.2532,5.254,5.264,5.2568,5.2574,5.2577,5.258,5.2808,5.281,0,0,0,0,0,0,5.2218,5.2236,5.2381,5.2388,5.229,5.2363,5.2375,5.241,5.2469,5.2476,5.2429,5.2427,5.2523,5.2533,5.2544,5.2642,5.2575,5.258,5.2584,5.2805,5.2808,5.2811,0,0,0,0,0,0,5.2214,5.2231,5.2377,5.2312,5.2331,5.2368,5.2408,5.2413,5.2438,5.248,5.2486,5.2448,5.2522,5.2535,5.2609,5.2645,5.2583,5.2589,5.2802,5.2806,5.281,5.2838,0,0,0,0,0,0,5.2208,5.2229,5.226,5.2313,5.2334,5.2441,5.241,5.2416,5.2449,5.2447,5.2499,5.2506,5.2521,5.26,5.2615,5.2652,5.2593,5.2799,5.2804,5.2808,5.2834,5.2842,5.2849,0,0,0,0,0,5.2201,5.2263,5.2262,5.2279,5.2373,5.2443,5.2455,5.2473,5.2452,5.2483,5.251,5.2504,5.2639,5.2607,5.2624,5.2664,5.2797,5.2803,5.2808,5.283,5.2841,5.2849,0,0,0,0,0,0,5.2212,5.227,5.2269,5.235,5.2392,5.2442,5.2482,5.2482,5.253,5.2526,5.2544,5.2556,5.263,5.2654,5.2618,5.2745,5.2715,5.2724,5.2727,5.2736,5.2744,5.2737,5.2598,0,0,0,0,0,5.2224,5.2277,5.2324,5.2391,5.2412,5.2444,5.2475,5.2485,5.2528,5.2546,5.2578,5.262,5.2672,5.2705,5.2755,5.2837,5.2849,5.2873,5.2881,5.2887,5.2895,5.2942,5.2953,5.2829,5.2829,5.2829,0,0,5.2249,5.2287,5.2319,5.2394,5.2428,5.2482,5.2459,5.2516,5.2556,5.2554,5.2626,5.2651,5.2699,5.2778,5.2814,5.28,5.2932,5.2894,5.2899,5.2903,5.2949,5.296,5.2971,5.2833,5.2832,5.2832,0,0,5.2322,5.2356,5.2417,5.2452,5.2504,5.2524,5.2539,5.259,5.2608,5.268,5.268,5.2728,5.2817,5.2852,5.2881,5.297,5.2967,5.2986,5.3026,5.3071,5.3081,5.309,5.3123,5.3134,5.2993,5.2993,5.2993,0,5.2347,5.2429,5.2447,5.2506,5.254,5.2542,5.2604,5.2636,5.2701,5.2724,5.2708,5.2821,5.2853,5.2941,5.2963,5.2987,5.3004,5.298,5.3078,5.3087,5.3096,5.3127,5.314,5.2995,5.2995,5.2995,5.2995,0,5.2457,5.2514,5.2556,5.2621,5.266,5.2719,5.2747,5.2783,5.279,5.2813,5.2888,5.2927,5.2986,5.3008,5.3014,5.3097,5.3087,5.3074,5.3045,5.3109,5.314,5.3152,5.2998,5.2998,5.2997,5.2996,0,0,5.2539,5.2615,5.263,5.2661,5.2719,5.2764,5.2824,5.2883,5.2915,5.296,5.3011,5.3087,5.3077,5.311,5.3121,5.3161,5.3231,5.3144,5.3145,5.3159,5.3326,5.3335,5.3349,5.3229,5.3231,5.3233,5.3322,0,5.2619,5.2727,5.2747,5.2841,5.2895,5.2899,5.2952,5.2993,5.3016,5.3065,5.309,5.3144,5.3126,5.3146,5.3186,5.3214,5.3264,5.3208,5.3277,5.3279,5.3265,5.3365,5.3374,5.3456,5.3334,5.3336,5.3337,0,5.2727,5.2777,5.2878,5.2931,5.2954,5.3001,5.3058,5.3105,5.3152,5.3166,5.3205,5.3211,5.3274,5.3242,5.3329,5.329,5.332,5.3338,5.3342,5.3349,5.3312,5.3375,5.3483,5.3495,5.3356,5.3354,5.3353,0,5.2778,5.2871,5.2943,5.2969,5.3033,5.3066,5.3094,5.314,5.3175,5.3224,5.3247,5.3302,5.3333,5.3375,5.3397,5.3371,5.3483,5.3452,5.3497,5.3496,5.352,5.3518,5.3634,5.3538,5.3538,5.3537,5.3537,0,5.2866,5.2928,5.2968,5.3012,5.3082,5.3104,5.3171,5.3198,5.3239,5.3289,5.3295,5.3342,5.3367,5.3418,5.3435,5.3505,5.3518,5.3531,5.3535,5.3531,5.353,5.3551,5.3546,5.3541,5.354,5.3539,5.3539,0,5.2935,5.2964,5.3044,5.3099,5.3114,5.3163,5.3209,5.3253,5.3277,5.334,5.3356,5.3393,5.3453,5.3479,5.3551,5.3563,5.3644,5.3643,5.3628,5.363,5.3673,5.3669,5.3807,5.3827,5.3717,5.3718,5.3719,0,5.299,5.3038,5.3098,5.3133,5.3162,5.3218,5.3254,5.3278,5.3316,5.3375,5.3411,5.3472,5.3521,5.3616,5.3649,5.3705,5.3706,5.3751,5.3715,5.371,5.3708,5.3705,5.3711,5.3758,5.3759,5.376,5.376,0,5.3084,5.3097,5.315,5.3209,5.3252,5.3299,5.3345,5.3373,5.3404,5.3446,5.3508,5.3546,5.3622,5.3682,5.3741,5.3769,5.377,5.3772,5.3785,5.3782,5.3772,5.3779,5.3647,5.3768,5.3768,5.3767,5.3767,5.3766,5.3148,5.3192,5.3242,5.3301,5.3339,5.3382,5.3426,5.3457,5.3509,5.3574,5.3584,5.3651,5.3699,5.3778,5.3808,5.386,5.3849,5.3868,5.3873,5.3878,5.3881,5.3763,5.3871,5.3871,5.3871,5.387,5.387,0,5.3244,5.3277,5.3331,5.3396,5.3443,5.3442,5.3493,5.3532,5.3591,5.3636,5.3686,5.3758,5.3816,5.3855,5.3914,5.3949,5.3951,5.3963,5.3961,5.3968,5.3887,5.387,5.3961,5.3961,5.3961,5.3961,5.3961,5.3961,5.3299,5.3373,5.3392,5.3485,5.3517,5.3584,5.3613,5.3654,5.369,5.3771,5.382,5.3846,5.3888,5.3951,5.4005,5.4015,5.4036,5.405,5.4059,5.3983,5.3973,5.3964,5.3949,5.4054,5.4054,5.4136,5.4136,5.4137]}]]